GW3945 Weather Reports


time (UTC)temp
C
wind
direction
speed
KPH
gust
KPH
rain 1hr
cm
rain 24hr
cm
rain mn
cm
humidity
%
barometer
mb
20260906125841 22 218 0.0 0.0 0.00 0.00 0.00 96 1012.6
20260906125338 22 217 0.0 0.0 0.00 0.00 0.00 97 1012.5
20260906124834 22 218 0.0 0.0 0.00 0.00 0.00 98 1012.4
20260906124330 22 218 0.0 0.0 0.00 0.00 0.00 98 1012.3
20260906123829 21 218 0.0 0.0 0.00 0.00 0.00 99 1012.3
20260906123324 21 218 0.0 0.0 0.00 0.00 0.00 99 1012.1
20260906122823 21 218 0.0 0.0 0.00 0.00 0.00 99 1012.0
20260906122318 21 218 0.0 0.0 0.00 0.00 0.00 99 1012.1
20260906121815 21 217 0.0 0.0 0.00 0.00 0.00 99 1012.1
20260906121311 21 217 0.0 0.0 0.00 0.00 0.00 99 1012.1
20260906120807 21 218 0.0 0.0 0.00 0.00 0.00 99 1011.9
20260906120303 21 218 0.0 0.0 0.00 0.00 0.00 99 1011.9
20260906115759 21 217 0.0 0.0 0.00 0.00 0.00 99 1011.9
20260906115254 21 216 0.0 0.0 0.00 0.00 0.00 99 1011.6
20260906114752 21 216 0.0 0.0 0.00 0.00 0.00 98 1011.8
20260906114242 21 216 0.0 0.0 0.00 0.00 0.00 98 1011.5
20260906113737 21 217 0.0 0.0 0.00 0.00 0.00 98 1011.6
20260906113237 21 217 0.0 0.0 0.00 0.00 0.00 98 1011.5
20260906112731 21 217 0.0 0.0 0.00 0.00 0.00 98 1011.4
20260906112227 21 218 0.0 0.0 0.00 0.00 0.00 98 1011.2
20260906111727 21 218 0.0 0.0 0.00 0.00 0.00 98 1011.4
20260906111221 21 217 0.0 0.0 0.00 0.00 0.00 98 1011.4
20260906110717 21 217 0.0 0.0 0.00 0.00 0.00 98 1011.2
20260906110213 21 217 0.0 0.0 0.00 0.00 0.00 97 1011.2
20260906105711 21 218 0.0 0.0 0.00 0.00 0.00 97 1010.9
20260906105207 21 213 0.0 0.0 0.00 0.00 0.00 97 1011.3
20260906104707 21 210 0.0 0.0 0.00 0.00 0.00 97 1011.2
20260906104201 21 210 0.0 0.0 0.00 0.00 0.00 98 1011.0
20260906103658 21 210 0.0 0.0 0.00 0.00 0.00 97 1011.0
20260906103154 21 211 0.0 0.0 0.00 0.00 0.00 97 1011.1
20260906102649 21 211 0.0 0.0 0.00 0.00 0.00 97 1010.9
20260906102148 22 211 0.0 0.0 0.00 0.00 0.00 97 1010.8
20260906101648 21 211 0.0 0.0 0.00 0.00 0.00 97 1010.9
20260906101143 21 210 0.0 0.0 0.00 0.00 0.00 97 1010.9
20260906100639 21 209 0.0 0.0 0.00 0.00 0.00 97 1011.0
20260906100133 22 209 0.0 0.0 0.00 0.00 0.00 97 1010.9
20260906095628 22 210 0.0 0.0 0.00 0.00 0.00 96 1010.9
20260906095124 22 210 0.0 0.0 0.00 0.00 0.00 96 1010.8
20260906094622 22 210 0.0 0.0 0.00 0.00 0.00 96 1010.9
20260906094118 22 210 0.0 0.0 0.00 0.00 0.00 95 1011.1
20260906093614 22 227 0.0 0.0 0.00 0.00 0.00 95 1011.1
20260906093108 22 209 0.0 0.0 0.00 0.00 0.00 95 1011.0
20260906092603 22 209 0.0 0.0 0.00 0.00 0.00 95 1010.9
20260906092059 22 209 0.0 0.0 0.00 0.00 0.00 95 1010.8
20260906091554 22 211 0.0 0.0 0.00 0.00 0.00 96 1010.9
20260906091051 22 211 0.0 0.0 0.00 0.00 0.00 96 1010.8
20260906090551 22 211 0.0 0.0 0.00 0.00 0.00 94 1010.6
20260906090046 22 211 0.0 0.0 0.00 0.00 0.00 94 1010.8
20260906085545 22 211 0.0 0.0 0.00 0.00 0.00 94 1010.7
20260906085044 22 209 0.0 0.0 0.00 0.00 0.00 94 1010.8
20260906084539 22 210 0.0 0.0 0.00 0.00 0.00 94 1010.5
20260906084038 22 211 0.0 0.0 0.00 0.00 0.00 94 1010.7
20260906083534 22 211 0.0 0.0 0.00 0.00 0.00 94 1010.7
20260906083033 22 208 0.0 0.0 0.00 0.00 0.00 94 1010.8
20260906082528 22 211 0.0 0.0 0.00 0.00 0.00 93 1010.6
20260906082024 22 207 0.0 0.0 0.00 0.00 0.00 93 1010.7
20260906081520 22 205 0.0 0.0 0.00 0.00 0.00 93 1010.7
20260906081016 22 206 0.0 0.0 0.00 0.00 0.00 92 1010.8
20260906080512 22 207 0.0 0.0 0.00 0.00 0.00 92 1010.7
20260906080008 23 208 0.0 0.0 0.00 0.00 0.00 93 1010.7
20260906075502 23 205 0.0 0.0 0.00 0.00 0.00 90 1010.6
20260906074956 23 207 0.0 0.0 0.00 0.00 0.00 89 1010.8
20260906074451 23 210 0.0 0.0 0.00 0.00 0.00 89 1010.7
20260906073949 23 207 0.0 0.0 0.00 0.00 0.00 90 1010.4
20260906073444 23 207 0.0 0.0 0.00 0.00 0.00 89 1010.6
20260906072941 23 206 0.0 0.0 0.00 0.00 0.00 89 1010.8
20260906072436 23 208 0.0 0.0 0.00 0.00 0.00 89 1010.6
20260906071932 23 206 0.0 0.0 0.00 0.00 0.00 88 1010.9
20260906071427 23 208 0.0 0.0 0.00 0.00 0.00 88 1010.9
20260906070923 23 207 0.0 0.0 0.00 0.00 0.00 90 1010.9
20260906070419 23 206 0.0 0.0 0.00 0.00 0.00 90 1010.8
20260906065915 23 206 0.0 0.0 0.00 0.00 0.00 89 1010.9
20260906065409 23 207 0.0 0.0 0.00 0.00 0.00 90 1010.9
20260906064905 23 205 0.0 0.0 0.00 0.00 0.00 90 1011.0
20260906064401 23 207 0.0 0.0 0.00 0.00 0.00 91 1010.7
20260906063900 23 206 0.0 1.6 0.00 0.00 0.00 92 1011.0
20260906063356 23 205 0.0 0.0 0.00 0.00 0.00 91 1010.8
20260906062851 23 207 0.0 0.0 0.00 0.00 0.00 92 1011.1
20260906062350 23 206 0.0 0.0 0.00 0.00 0.00 92 1010.9
20260906061846 23 209 0.0 0.0 0.00 0.00 0.00 92 1011.0
20260906061342 23 202 0.0 0.0 0.00 0.00 0.00 92 1011.5
20260906060836 23 201 0.0 0.0 0.00 0.00 0.00 93 1011.5
20260906060335 23 204 0.0 0.0 0.00 0.00 0.00 95 1011.6
20260906055830 23 206 0.0 0.0 0.00 0.00 0.00 94 1011.6
20260906055326 23 203 0.0 0.0 0.00 0.00 0.00 94 1011.6
20260906054820 23 207 0.0 0.0 0.00 0.00 0.00 96 1011.6
20260906054315 23 208 0.0 0.0 0.00 0.00 0.00 95 1011.8
20260906053812 23 209 0.0 0.0 0.00 0.00 0.00 94 1011.7
20260906053307 23 209 0.0 0.0 0.00 0.00 0.00 94 1011.8
20260906052802 23 196 0.0 0.0 0.00 0.00 0.00 94 1011.9
20260906052259 23 204 0.0 0.0 0.00 0.00 0.00 95 1012.0
20260906051756 23 202 0.0 0.0 0.00 0.00 0.00 94 1011.9
20260906051255 23 206 0.0 0.0 0.00 0.00 0.00 94 1011.8
20260906050750 23 204 0.0 0.0 0.00 0.00 0.00 95 1011.6
20260906050246 22 203 0.0 0.0 0.00 0.00 0.00 97 1011.8
20260906045744 22 206 0.0 0.0 0.00 0.56 0.56 98 1011.7
20260906045239 23 207 0.0 0.0 0.00 0.56 0.56 99 1011.7
20260906044735 23 216 0.0 0.0 0.00 0.56 0.56 99 1011.7
20260906044230 23 212 0.0 0.0 0.00 0.56 0.56 99 1011.5
20260906043726 23 224 0.0 0.0 0.00 0.56 0.56 99 1011.7
20260906043222 23 212 0.0 0.0 0.00 0.56 0.56 99 1011.6
20260906042721 23 254 0.0 0.0 0.00 0.56 0.56 99 1011.9
20260906042220 23 215 0.0 0.0 0.00 0.56 0.56 99 1011.9
20260906041716 23 258 0.0 0.0 0.00 0.56 0.56 99 1011.9
20260906041211 23 231 1.6 3.2 0.00 0.56 0.56 99 1011.7
20260906040707 23 235 0.0 0.0 0.00 0.56 0.56 99 1011.3
20260906040201 23 225 0.0 0.0 0.00 0.56 0.56 99 1011.2
20260906035657 23 227 0.0 0.0 0.00 0.56 0.56 99 1011.2
20260906035153 23 224 0.0 0.0 0.00 0.56 0.56 99 1011.1
20260906034647 23 224 0.0 0.0 0.00 0.56 0.56 99 1011.3
20260906034142 23 228 0.0 0.0 0.00 0.56 0.56 99 1011.4
20260906033638 23 220 0.0 0.0 0.00 0.56 0.56 99 1011.5
20260906033138 23 220 0.0 0.0 0.00 0.56 0.56 99 1011.7
20260906032635 23 228 0.0 0.0 0.00 0.56 0.56 99 1011.7
20260906032134 23 213 0.0 0.0 0.00 0.56 0.56 99 1011.6
20260906031629 23 214 0.0 0.0 0.00 0.56 0.56 99 1011.6
20260906031125 23 217 0.0 0.0 0.00 0.56 0.56 98 1011.6
20260906030624 23 219 0.0 1.6 0.00 0.56 0.56 98 1011.5
20260906030120 23 207 0.0 0.0 0.00 0.56 0.56 99 1011.6
20260906025619 23 298 0.0 0.0 0.00 0.56 0.56 99 1011.6
20260906025118 23 263 3.2 3.2 0.00 0.56 0.56 99 1011.2
20260906024613 23 228 0.0 0.0 0.00 0.56 0.56 98 1010.7
20260906024107 23 217 0.0 0.0 0.00 0.56 0.56 98 1010.9
20260906023603 23 217 0.0 0.0 0.00 0.56 0.56 98 1010.8
20260906023057 23 223 0.0 0.0 0.00 0.56 0.56 98 1010.5
20260906022553 23 231 0.0 0.0 0.00 0.56 0.56 98 1010.3
20260906022048 23 216 0.0 0.0 0.00 0.56 0.56 97 1010.4
20260906021544 23 248 0.0 0.0 0.00 0.56 0.56 97 1010.2
20260906021043 23 223 0.0 0.0 0.00 0.56 0.56 97 1010.3
20260906020542 23 217 0.0 0.0 0.00 0.56 0.56 97 1010.4
20260906020037 23 216 0.0 0.0 0.00 0.56 0.56 97 1010.4
20260906015536 24 283 3.2 3.2 0.30 0.56 0.56 96 1010.2
20260906015036 23 288 4.8 4.8 3.25 0.56 0.56 95 1010.2
20260906014531 23 187 3.2 4.8 3.17 0.53 0.53 94 1009.9
20260906014026 26 175 0.0 0.0 0.30 0.05 0.05 87 1010.1
20260906013522 26 207 0.0 0.0 0.00 0.00 0.00 78 1010.2
20260906013017 27 207 0.0 0.0 0.00 0.00 0.00 78 1010.3
20260906012512 27 205 0.0 0.0 0.00 0.00 0.00 77 1010.3
20260906012011 28 198 1.6 1.6 0.00 0.00 0.00 73 1010.4
20260906011508 28 274 0.0 0.0 0.00 0.00 0.00 72 1010.1
20260906011002 28 222 0.0 0.0 0.00 0.00 0.00 71 1010.2
20260906010457 28 220 0.0 0.0 0.00 0.00 0.00 69 1009.7
20260906005954 29 229 0.0 0.0 0.00 0.00 0.00 69 1009.6
20260906005453 29 205 0.0 0.0 0.00 0.00 0.00 64 1009.8
20260906004951 29 207 0.0 0.0 0.00 0.00 0.00 68 1009.8
20260906004446 29 210 0.0 0.0 0.00 0.00 0.00 69 1009.8
20260906003941 30 210 0.0 0.0 0.00 0.00 0.00 66 1009.8
20260906003436 30 211 0.0 0.0 0.00 0.00 0.00 65 1010.0
20260906002931 30 211 0.0 0.0 0.00 0.00 0.00 65 1010.5
20260906002431 30 205 0.0 0.0 0.00 0.00 0.00 66 1010.3
20260906001926 30 193 0.0 0.0 0.00 0.00 0.00 70 1010.0
20260906001422 30 181 3.2 3.2 0.00 0.00 0.00 67 1010.4
20260906000917 30 199 0.0 0.0 0.00 0.00 0.00 73 1010.1
20260906000412 30 198 0.0 0.0 0.00 0.00 0.00 75 1010.1
20260905235907 30 203 0.0 0.0 0.00 0.00 0.00 75 1010.0
20260905235401 30 202 0.0 0.0 0.00 0.00 0.00 78 1010.0
20260905234856 31 220 0.0 0.0 0.00 0.00 0.00 76 1009.8
20260905234351 32 221 0.0 0.0 0.00 0.00 0.00 69 1009.9
20260905233846 32 224 0.0 0.0 0.00 0.00 0.00 63 1009.9
20260905233342 32 224 0.0 0.0 0.00 0.00 0.00 62 1009.9
20260905232841 33 227 0.0 0.0 0.00 0.00 0.00 61 1009.7
20260905232337 33 224 0.0 0.0 0.00 0.00 0.00 60 1009.8
20260905231832 33 232 0.0 0.0 0.00 0.00 0.00 60 1009.6
20260905231333 33 227 0.0 0.0 0.00 0.00 0.00 60 1009.7
20260905230830 33 223 0.0 0.0 0.00 0.00 0.00 61 1009.5
20260905230327 33 244 0.0 0.0 0.00 0.00 0.00 60 1009.6
20260905225826 33 253 0.0 0.0 0.00 0.00 0.00 61 1009.4
20260905225321 33 239 0.0 0.0 0.00 0.00 0.00 61 1009.6
20260905224816 33 225 0.0 0.0 0.00 0.00 0.00 58 1009.8
20260905224312 34 227 0.0 0.0 0.00 0.00 0.00 56 1009.7
20260905223806 34 224 0.0 0.0 0.00 0.00 0.00 56 1009.5
20260905223304 34 230 0.0 0.0 0.00 0.00 0.00 55 1009.5
20260905222759 34 226 0.0 0.0 0.00 0.00 0.00 54 1009.6
20260905222258 34 222 0.0 0.0 0.00 0.00 0.00 54 1009.8
20260905221754 35 224 0.0 0.0 0.00 0.00 0.00 52 1009.6
20260905221250 35 222 0.0 0.0 0.00 0.00 0.00 51 1009.6
20260905220746 35 228 0.0 0.0 0.00 0.00 0.00 51 1009.6
20260905220242 35 222 0.0 0.0 0.00 0.00 0.00 50 1009.7
20260905215741 36 249 0.0 0.0 0.00 0.00 0.00 48 1009.7
20260905215237 36 234 0.0 0.0 0.00 0.00 0.00 48 1009.4
20260905214733 36 258 0.0 0.0 0.00 0.00 0.00 48 1009.6
20260905214228 38 222 0.0 0.0 0.00 0.00 0.00 47 1009.7
20260905213718 37 220 0.0 0.0 0.00 0.00 0.00 44 1009.7
20260905213214 37 230 0.0 0.0 0.00 0.00 0.00 47 1009.6
20260905212709 37 227 0.0 0.0 0.00 0.00 0.00 45 1009.6
20260905212208 37 225 0.0 0.0 0.00 0.00 0.00 43 1009.7
20260905211703 37 221 0.0 0.0 0.00 0.00 0.00 45 1009.8
20260905211158 37 225 0.0 1.6 0.00 0.00 0.00 45 1009.7
20260905210655 37 222 0.0 0.0 0.00 0.00 0.00 47 1009.7
20260905210154 37 228 0.0 0.0 0.00 0.00 0.00 47 1009.9
20260905205654 36 223 0.0 0.0 0.00 0.00 0.00 48 1010.0
20260905205153 36 220 0.0 0.0 0.00 0.00 0.00 49 1010.0
20260905204653 36 267 0.0 0.0 0.00 0.00 0.00 49 1010.2
20260905204148 36 266 0.0 0.0 0.00 0.00 0.00 53 1010.1
20260905203643 36 218 0.0 0.0 0.00 0.00 0.00 52 1010.3
20260905203138 35 225 0.0 0.0 0.00 0.00 0.00 50 1010.2
20260905202634 35 232 0.0 1.6 0.00 0.00 0.00 50 1010.1
20260905202129 35 253 0.0 1.6 0.00 0.00 0.00 51 1010.4
20260905201624 35 226 0.0 0.0 0.00 0.00 0.00 50 1010.4
20260905201124 35 209 0.0 0.0 0.00 0.00 0.00 51 1010.5
20260905200620 35 228 0.0 0.0 0.00 0.00 0.00 50 1010.7
20260905200115 35 223 0.0 0.0 0.00 0.00 0.00 50 1010.8
20260905195614 35 230 0.0 0.0 0.00 0.00 0.00 51 1011.0
20260905195109 35 250 0.0 1.6 0.00 0.00 0.00 52 1011.1
20260905194609 35 215 0.0 0.0 0.00 0.00 0.00 52 1011.1
20260905194108 35 278 0.0 1.6 0.00 0.00 0.00 52 1011.0
20260905193603 35 225 0.0 0.0 0.00 0.00 0.00 50 1011.2
20260905193058 35 198 0.0 0.0 0.00 0.00 0.00 52 1011.0
20260905192553 35 203 3.2 3.2 0.00 0.00 0.00 50 1011.1
20260905192050 35 288 0.0 0.0 0.00 0.00 0.00 51 1011.1
20260905191548 35 233 0.0 0.0 0.00 0.00 0.00 51 1011.2
20260905191042 35 204 0.0 0.0 0.00 0.00 0.00 53 1011.1
20260905190540 35 222 0.0 0.0 0.00 0.00 0.00 52 1011.1
20260905190040 35 234 0.0 0.0 0.00 0.00 0.00 54 1011.3
20260905185539 35 224 0.0 0.0 0.00 0.00 0.00 54 1011.4
20260905185038 35 234 0.0 0.0 0.00 0.00 0.00 52 1011.5
20260905184533 35 225 0.0 0.0 0.00 0.00 0.00 54 1011.6
20260905184031 34 246 0.0 0.0 0.00 0.00 0.00 56 1011.8
20260905183526 34 207 0.0 0.0 0.00 0.00 0.00 58 1011.8
20260905183021 34 285 4.8 4.8 0.00 0.00 0.00 54 1011.8
20260905182521 34 225 0.0 0.0 0.00 0.00 0.00 56 1012.1
20260905182015 34 231 0.0 0.0 0.00 0.00 0.00 55 1012.0
20260905181510 35 277 1.6 3.2 0.00 0.00 0.00 53 1011.9
20260905181009 35 223 0.0 0.0 0.00 0.00 0.00 55 1012.3
20260905180504 35 230 0.0 0.0 0.00 0.00 0.00 55 1012.2
20260905175959 35 233 0.0 0.0 0.00 0.00 0.00 54 1012.3
20260905175458 34 244 1.6 3.2 0.00 0.00 0.00 54 1012.3
20260905174954 34 237 0.0 0.0 0.00 0.00 0.00 55 1012.4
20260905174449 34 231 0.0 0.0 0.00 0.00 0.00 55 1012.4
20260905173945 34 234 0.0 0.0 0.00 0.00 0.00 57 1012.4
20260905173441 33 265 0.0 0.0 0.00 0.00 0.00 60 1012.2
20260905172936 33 218 0.0 0.0 0.00 0.00 0.00 60 1012.6
20260905172434 33 286 0.0 1.6 0.00 0.00 0.00 59 1012.6
20260905171930 33 229 0.0 0.0 0.00 0.00 0.00 59 1012.8
20260905171427 33 229 0.0 0.0 0.00 0.00 0.00 61 1012.6
20260905170923 33 220 0.0 0.0 0.00 0.00 0.00 65 1012.6
20260905170419 33 210 0.0 0.0 0.00 0.00 0.00 62 1012.7
20260905165918 33 291 3.2 3.2 0.00 0.00 0.00 62 1012.8
20260905165414 33 254 1.6 1.6 0.00 0.00 0.00 64 1012.9
20260905164909 33 251 0.0 0.0 0.00 0.00 0.00 63 1013.0
20260905164409 32 219 0.0 0.0 0.00 0.00 0.00 64 1012.6
20260905163904 32 222 0.0 0.0 0.00 0.00 0.00 64 1012.8
20260905163400 32 234 0.0 0.0 0.00 0.00 0.00 63 1012.9
20260905162855 32 223 0.0 0.0 0.00 0.00 0.00 64 1013.2
20260905162350 32 240 1.6 1.6 0.00 0.00 0.00 66 1013.2
20260905161845 32 221 0.0 0.0 0.00 0.00 0.00 66 1013.4
20260905161344 32 222 0.0 0.0 0.00 0.00 0.00 66 1013.4
20260905160843 32 202 0.0 0.0 0.00 0.00 0.00 66 1013.3
20260905160337 32 202 0.0 0.0 0.00 0.00 0.00 67 1013.3
20260905155831 32 197 0.0 0.0 0.00 0.00 0.00 72 1013.4
20260905155330 31 197 0.0 0.0 0.00 0.00 0.00 73 1013.4
20260905154825 31 196 0.0 0.0 0.00 0.00 0.00 71 1013.6
20260905154320 31 195 0.0 0.0 0.00 0.00 0.00 76 1013.4
20260905153815 30 192 0.0 0.0 0.00 0.00 0.00 80 1013.5
20260905153312 30 196 0.0 0.0 0.00 0.00 0.00 80 1013.7
20260905152806 30 197 0.0 0.0 0.00 0.00 0.00 77 1013.7
20260905152306 30 197 0.0 0.0 0.00 0.00 0.00 81 1013.5
20260905151800 30 197 0.0 0.0 0.00 0.00 0.00 81 1013.7
20260905151256 29 198 0.0 0.0 0.00 0.00 0.00 81 1013.8
20260905150750 29 199 0.0 0.0 0.00 0.00 0.00 82 1013.6
20260905150250 28 199 0.0 0.0 0.00 0.00 0.00 84 1013.7
20260905145747 28 199 0.0 0.0 0.00 0.00 0.00 85 1013.7
20260905145242 28 199 0.0 0.0 0.00 0.00 0.00 85 1013.8
20260905144741 27 199 0.0 0.0 0.00 0.00 0.00 86 1013.7
20260905144237 27 200 0.0 0.0 0.00 0.00 0.00 87 1013.6
20260905143735 27 199 0.0 0.0 0.00 0.00 0.00 88 1013.9
20260905143235 26 199 0.0 0.0 0.00 0.00 0.00 89 1013.9
20260905142733 25 198 0.0 0.0 0.00 0.00 0.00 91 1013.9
20260905142228 25 203 0.0 0.0 0.00 0.00 0.00 92 1013.9
20260905141724 25 201 0.0 0.0 0.00 0.00 0.00 93 1014.0
20260905141220 25 201 0.0 0.0 0.00 0.00 0.00 93 1014.0
20260905140715 25 201 0.0 0.0 0.00 0.00 0.00 93 1014.0
20260905140209 25 201 0.0 0.0 0.00 0.00 0.00 93 1014.1
20260905135703 25 201 0.0 0.0 0.00 0.00 0.00 93 1014.0
20260905135200 25 201 0.0 0.0 0.00 0.00 0.00 93 1013.9
20260905134659 25 201 0.0 0.0 0.00 0.00 0.00 91 1013.9
20260905134158 25 201 0.0 0.0 0.00 0.00 0.00 92 1013.8
20260905133653 25 201 0.0 0.0 0.00 0.00 0.00 93 1014.0
20260905133154 25 200 0.0 0.0 0.00 0.00 0.00 94 1014.2
20260905132653 25 200 0.0 0.0 0.00 0.00 0.00 93 1014.0
20260905132148 25 200 0.0 0.0 0.00 0.00 0.00 92 1013.9
20260905131643 25 200 0.0 0.0 0.00 0.00 0.00 91 1013.9
20260905131138 24 200 0.0 0.0 0.00 0.00 0.00 92 1013.9
20260905130633 24 200 0.0 0.0 0.00 0.00 0.00 93 1014.1
20260905130132 24 201 0.0 0.0 0.00 0.00 0.00 93 1014.0